Location: Blue Mountain Vista Observatory
(40.6992°N, 75.9422°W)
Time: 15:17:56
(UTC-04:00)

Amateur Radio Satellites - All Passes

Search period start: 24 May 2015 14:47
Search period end: 25 May 2015 14:47
Location: Blue Mountain Vista Observatory, 40.6992°N, 75.9422°W

Satellite Date Start Highest point End Downlink Frequencies (MHz)
Time Altitude Azimuth
CUSAT 1 24 May 14:49:11 14:55:56 41° 291° (WNW) 15:03:35 437.405
RS-15 24 May 14:54:39 15:02:24 20° 3° (N) 15:10:26 29.354- 29.394
ITUPSAT 1 24 May 15:21:02 15:25:43 53° 287° (WNW) 15:30:21 437.325
BEESAT 24 May 15:30:47 15:35:17 41° 289° (WNW) 15:39:44 436.000
ITAMSAT 1 24 May 15:37:37 15:42:00 27° 266° (W) 15:46:19 435.822/435.867
SWISSCUBE 24 May 15:39:00 15:43:15 32° 291° (WNW) 15:47:27 437.505
DANDE 24 May 15:42:32 15:48:17 24° 300° (WNW) 15:54:31 436.750
Cosmos 2499 24 May 15:44:22 15:52:34 72° 95° (E) 16:00:12 435.465 / 435.565
STARS 24 May 15:55:53 16:00:06 42° 98° (E) 16:04:17 437.465
Gurwin Techsat 1B 24 May 15:59:20 16:03:12 20° 269° (W) 16:06:54 435.225
HORYU 2 24 May 16:10:39 16:15:08 67° 258° (WSW) 16:19:37 437.375
AO-7 24 May 16:18:54 16:27:12 82° 253° (WSW) 16:35:35 29.400- 29.500
GONETS M04 24 May 16:19:31 16:25:12 17° 301° (WNW) 16:30:25
KKS-1 24 May 16:20:51 16:25:18 63° 286° (WNW) 16:29:43 437.445
JAS-2 24 May 16:24:14 16:31:09 67° 258° (WSW) 16:37:15 435.910
O/OREOS (USA 219) 24 May 16:42:33 16:47:05 89° 113° (ESE) 16:51:37 437.305
RS-15 24 May 17:09:10 17:19:29 37° 36° (NE) 17:30:23 29.354- 29.394
MOZHAYETS 4 24 May 17:29:22 17:33:52 55° 100° (E) 17:38:21
CUTE-I 24 May 17:29:33 17:33:38 24° 65° (ENE) 17:37:52 437.470
STARS 24 May 17:33:08 17:36:16 19° 294° (WNW) 17:39:14 437.465
Cosmos 2499 24 May 17:40:13 17:46:27 23° 294° (WNW) 17:52:06 435.465 / 435.565
Cubesat XI-IV 24 May 17:48:31 17:53:15 35° 69° (ENE) 17:58:05 437.490
YUBILEINY 24 May 18:04:45 18:11:44 27° 66° (ENE) 18:18:58 435.215
Cosmos 2491 24 May 18:12:27 18:15:12 12° 76° (ENE) 18:18:41 435.465 / 435.565
AO-7 24 May 18:16:42 18:21:25 15° 273° (W) 18:25:35 29.400- 29.500
O/OREOS (USA 219) 24 May 18:26:05 18:27:16 11° 311° (NW) 18:28:14 437.305
BEESAT 3 24 May 18:33:25 18:37:04 33° 115° (ESE) 18:40:47 437.485
AIST 2 24 May 18:52:57 18:54:40 13° 110° (ESE) 18:56:37 435.215
CUBESAT XI-V 24 May 19:00:23 19:04:49 41° 97° (E) 19:09:16 437.345
BRITE-PL 24 May 19:00:40 19:03:31 16° 62° (ENE) 19:06:41 437.365/2234.400
MOZHAYETS 4 24 May 19:08:00 19:10:41 15° 295° (WNW) 19:13:12
CUTE-I 24 May 19:08:25 19:13:28 45° 261° (W) 19:18:34 437.470
STRAND 1 24 May 19:13:23 19:17:23 23° 93° (E) 19:21:30 437.568
GOMX 1 24 May 19:17:20 19:19:59 15° 62° (ENE) 19:22:57 467.674
BEESAT 2 24 May 19:17:57 19:22:03 84° 122° (ESE) 19:26:13 435.950
RS-15 24 May 19:21:34 19:33:13 79° 241° (WSW) 19:45:20 29.354- 29.394
Cubesat XI-IV 24 May 19:28:48 19:33:25 29° 265° (W) 19:38:00 437.490
HO-68 24 May 19:47:09 19:53:17 33° 63° (ENE) 19:59:33 435.675
PRISM 24 May 19:57:19 20:01:28 75° 102° (ESE) 20:05:38 437.425
YUBILEINY 24 May 20:00:45 20:09:22 65° 267° (W) 20:17:52 435.215
AAUSAT CUBESAT 2 24 May 20:00:59 20:01:34 10° 64° (ENE) 20:02:23 437.432
Cosmos 2491 24 May 20:01:56 20:10:39 71° 94° (E) 20:19:27 435.465 / 435.565
BEESAT 3 24 May 20:11:42 20:15:07 24° 313° (NW) 20:18:30 437.485
M-CUBED/EXP-1 PRIME 24 May 20:25:14 20:28:31 55° 106° (ESE) 20:31:44 437.505
CINEMA 3 24 May 20:27:19 20:31:02 22° 67° (ENE) 20:34:55 145.822/145.860
DOVE 4 24 May 20:28:32 20:33:18 44° 71° (ENE) 20:38:18 437.250
AIST 2 24 May 20:28:34 20:32:47 63° 304° (NW) 20:37:03 435.215
CANX-2 24 May 20:29:58 20:34:01 43° 73° (ENE) 20:38:05 2200.000
CUTE 1.7 + AOD 2 24 May 20:33:57 20:37:59 43° 73° (ENE) 20:42:03 437.475
Oscar 11 24 May 20:34:25 20:36:06 12° 64° (ENE) 20:38:00 145.826/435.025
AUBIESAT-1 24 May 20:35:56 20:39:15 67° 107° (ESE) 20:42:32 437.475
BRITE-PL 24 May 20:36:25 20:41:22 71° 259° (W) 20:46:46 437.365/2234.400
CUBESAT XI-V 24 May 20:38:29 20:42:01 21° 293° (WNW) 20:45:26 437.345
DELFI C3 24 May 20:45:54 20:46:33 10° 64° (ENE) 20:47:24 145.870
AIST 1 24 May 20:47:12 20:50:52 30° 91° (E) 20:54:39
STRAND 1 24 May 20:51:57 20:56:47 41° 290° (WNW) 21:01:34 437.568
GOMX 1 24 May 20:52:22 20:57:25 77° 258° (WSW) 21:02:49 467.674
UWE-3 24 May 20:54:04 20:56:52 16° 66° (ENE) 20:59:51 435.000/436.395/437.385
BEESAT 2 24 May 20:58:44 21:00:45 13° 321° (NW) 21:02:39 435.950
Cosmos 2504 24 May 21:00:25 21:06:42 32° 70° (ENE) 21:13:01 435.465 / 435.565
SEEDS 24 May 21:00:32 21:04:46 72° 75° (ENE) 21:08:58 437.485
FUNcube-1 24 May 21:10:55 21:14:00 18° 67° (ENE) 21:17:13 145.935
COMPASS 1 24 May 21:18:02 21:22:15 89° 255° (WSW) 21:26:27 437.405
AAUSAT CUBESAT 2 24 May 21:32:29 21:36:40 71° 259° (WSW) 21:40:50 437.432
HO-68 24 May 21:33:50 21:40:47 50° 260° (W) 21:47:44 435.675
CUBEBUG 2 24 May 21:35:30 21:40:06 52° 73° (ENE) 21:44:46 437.445
RS-15 24 May 21:36:39 21:44:14 19° 259° (W) 21:51:05 29.354- 29.394
ZACube-1 24 May 21:48:50 21:53:13 45° 73° (ENE) 21:57:37 437.345
UKube-1 24 May 21:57:05 22:00:38 26° 69° (ENE) 22:04:16 .
Cosmos 2491 24 May 22:01:22 22:08:28 25° 296° (WNW) 22:15:19 435.465 / 435.565
DX 1 24 May 22:01:41 22:05:29 31° 70° (ENE) 22:09:23 434.975-435.025
YUBILEINY 24 May 22:02:54 22:04:39 10° 285° (WNW) 22:05:38 435.215
CINEMA 3 24 May 22:03:11 22:07:55 44° 263° (W) 22:12:45 145.822/145.860
50 SAT 24 May 22:03:20 22:05:42 16° 67° (ENE) 22:08:13 437.505
HUMSAT D 24 May 22:04:47 22:08:33 30° 71° (ENE) 22:12:22 437.325/437.525
VELOX 1 24 May 22:06:45 22:09:40 18° 66° (ENE) 22:12:46 145.980
DOVE 4 24 May 22:07:16 22:11:17 23° 269° (W) 22:15:18 437.250
Oscar 11 24 May 22:07:30 22:11:49 64° 259° (W) 22:16:08 145.826/435.025
CANX-2 24 May 22:07:31 22:10:12 16° 269° (W) 22:12:43 2200.000
CUTE 1.7 + AOD 2 24 May 22:11:28 22:14:09 16° 269° (W) 22:16:41 437.475
CUBEBUG 1 24 May 22:14:43 22:15:32 11° 63° (ENE) 22:16:36 437.445
DELFI C3 24 May 22:17:10 22:21:11 66° 259° (W) 22:25:12 145.870
AIST 1 24 May 22:25:20 22:28:37 21° 288° (WNW) 22:31:49
ANTELSAT 24 May 22:27:59 22:29:06 11° 87° (E) 22:30:29 437.575/2403.000
UWE-3 24 May 22:28:24 22:33:00 55° 261° (W) 22:37:37 435.000/436.395/437.385
AISAT 24 May 22:36:07 22:40:11 37° 71° (ENE) 22:44:20 437.250
FUNcube-1 24 May 22:45:36 22:50:01 45° 262° (W) 22:54:26 145.935
Cosmos 2504 24 May 22:53:31 23:00:18 44° 270° (W) 23:06:58 435.465 / 435.565
QB50P2 24 May 22:57:06 22:57:29 10° 87° (E) 22:58:10 145.880/145.840
DANDE 24 May 22:59:47 23:03:04 13° 51° (NE) 23:06:36 436.750
TIGRISAT 24 May 23:00:00 23:03:37 25° 94° (E) 23:07:14 435.000
POPSAT HIP 1 24 May 23:08:25 23:10:37 14° 90° (E) 23:13:00 437.405
DUCHIFAT 1 24 May 23:12:17 23:14:42 15° 90° (E) 23:17:18 145.980
CUBEBUG 2 24 May 23:14:02 23:17:08 16° 270° (W) 23:20:03 437.445
UNISAT 6 24 May 23:18:54 23:23:06 42° 98° (E) 23:27:12 437.425
ZACube-1 24 May 23:26:39 23:29:49 18° 269° (W) 23:32:50 437.345
UKube-1 24 May 23:32:58 23:36:43 27° 265° (W) 23:40:24 .
ESTCUBE 1 24 May 23:34:20 23:38:48 89° 77° (ENE) 23:43:19 437.505/2401.250
TISAT 1 24 May 23:34:48 23:37:18 16° 66° (ENE) 23:39:59 437.305
50 SAT 24 May 23:36:19 23:40:08 40° 262° (W) 23:43:55 437.505
DX 1 24 May 23:38:17 23:41:47 23° 266° (W) 23:45:13 434.975-435.025
HUMSAT D 24 May 23:40:47 23:44:19 23° 266° (W) 23:47:46 437.325/437.525
VELOX 1 24 May 23:41:43 23:45:56 43° 261° (W) 23:50:12 145.980
BUGSAT 1 24 May 23:45:58 23:49:30 25° 94° (E) 23:53:04 437.445
CUSAT 1 24 May 23:46:41 23:53:16 32° 65° (ENE) 23:58:46 437.405
CUBEBUG 1 24 May 23:46:59 23:51:20 77° 259° (WSW) 23:55:44 437.445
QB50P1 24 May 23:51:18 23:55:24 43° 98° (E) 23:59:29 145.935-145.965
POLYITAN 1 24 May 23:51:53 23:55:59 44° 98° (E) 00:00:05 437.675
ANTELSAT 25 May 00:02:04 00:06:27 63° 285° (WNW) 00:10:42 437.575/2403.000
AISAT 25 May 00:13:36 00:16:56 20° 268° (W) 00:20:10 437.250
NANOSAT C BR1 25 May 00:23:29 00:27:47 81° 284° (WNW) 00:32:02 145.865
GONETS M04 25 May 00:28:46 00:37:13 49° 74° (ENE) 00:45:38
QB50P2 25 May 00:29:40 00:33:56 66° 285° (WNW) 00:38:09 145.880/145.840
SPROUT 25 May 00:35:25 00:39:45 82° 260° (W) 00:44:06 437.525
TIGRISAT 25 May 00:36:34 00:40:23 28° 291° (WNW) 00:44:02 435.000
DANDE 25 May 00:40:24 00:48:29 64° 76° (ENE) 00:54:58 436.750
POPSAT HIP 1 25 May 00:42:40 00:46:50 48° 287° (WNW) 00:50:56 437.405
DUCHIFAT 1 25 May 00:46:43 00:50:49 45° 288° (WNW) 00:54:52 145.980
ITUPSAT 1 25 May 00:51:22 00:54:36 19° 65° (ENE) 00:57:59 437.325
UNISAT 6 25 May 00:56:33 00:59:35 18° 294° (WNW) 01:02:26 437.425
ISS 25 May 00:58:09 01:01:23 86° 322° (NW) 01:04:40 145.825
BEESAT 25 May 01:00:08 01:03:49 23° 67° (ENE) 01:07:38 436.000
SWISSCUBE 25 May 01:07:47 01:11:52 30° 69° (ENE) 01:16:01 437.505
TISAT 1 25 May 01:08:40 01:12:45 46° 261° (W) 01:16:52 437.305
O/OREOS (USA 219) 25 May 01:14:40 01:17:34 17° 54° (NE) 01:20:35 437.305
PCSat 25 May 01:17:30 01:22:30 40° 112° (ESE) 01:27:35 145.827
BUGSAT 1 25 May 01:21:16 01:24:57 27° 290° (WNW) 01:28:31 437.445
QB50P1 25 May 01:28:07 01:30:57 17° 294° (WNW) 01:33:39 145.935-145.965
POLYITAN 1 25 May 01:28:49 01:31:35 17° 294° (WNW) 01:34:12 437.675
CUSAT 1 25 May 01:29:14 01:36:15 45° 270° (W) 01:41:48 437.405
Cosmos 2499 25 May 01:36:59 01:42:02 21° 65° (ENE) 01:47:20 435.465 / 435.565
KKS-1 25 May 01:45:16 01:46:46 12° 63° (ENE) 01:48:29 437.445
Oscar 19 25 May 02:01:52 02:06:36 36° 97° (E) 02:11:20 437.125/150
ITAMSAT 1 25 May 02:12:33 02:14:40 13° 88° (E) 02:17:05 435.822/435.867
DANDE 25 May 02:24:46 02:30:55 25° 277° (W) 02:35:59 436.750
GONETS M04 25 May 02:26:02 02:33:52 36° 274° (W) 02:41:25
VERMONT LUNAR 25 May 02:26:54 02:28:56 16° 150° (SSE) 02:31:00 437.305
ITUPSAT 1 25 May 02:27:36 02:32:11 47° 261° (W) 02:36:47 437.325
Gurwin Techsat 1B 25 May 02:35:00 02:38:53 21° 92° (E) 02:42:55 435.225
ISS 25 May 02:35:49 02:38:12 18° 342° (NNW) 02:40:35 145.825
BEESAT 25 May 02:37:06 02:41:30 37° 263° (W) 02:45:54 436.000
SWISSCUBE 25 May 02:45:36 02:49:42 28° 265° (W) 02:53:46 437.505
STARS 25 May 02:52:27 02:56:30 36° 71° (ENE) 03:00:37 437.465
BEESAT 3 25 May 02:52:29 02:55:37 21° 45° (NE) 02:58:47 437.485
O/OREOS (USA 219) 25 May 02:53:01 02:57:20 49° 252° (WSW) 03:01:38 437.305
PCSat 25 May 03:01:17 03:06:03 30° 310° (NW) 03:10:48 145.827
AIST 2 25 May 03:14:15 03:15:27 11° 37° (NE) 03:16:48 435.215
KKS-1 25 May 03:18:23 03:22:52 73° 258° (WSW) 03:27:22 437.445
Cosmos 2499 25 May 03:28:55 03:35:54 65° 266° (W) 03:42:56 435.465 / 435.565
JAS-2 25 May 03:36:22 03:38:15 12° 88° (E) 03:40:29 435.910
BEESAT 2 25 May 03:37:33 03:41:31 45° 53° (NE) 03:45:26 435.950
Oscar 19 25 May 03:41:29 03:45:50 27° 293° (WNW) 03:50:04 437.125/150
SO-50 25 May 03:47:38 03:52:04 46° 117° (ESE) 03:56:41 436.795
ITAMSAT 1 25 May 03:49:37 03:54:50 75° 287° (WNW) 04:00:03 435.822/435.867
VERMONT LUNAR 25 May 04:02:36 04:05:46 56° 165° (SSE) 04:08:55 437.305
HORYU 2 25 May 04:02:50 04:06:19 23° 94° (E) 04:09:54 437.375
PHONESAT 2.4 25 May 04:04:02 04:06:55 24° 153° (SSE) 04:09:49 2401.200-2431.200
Gurwin Techsat 1B 25 May 04:14:03 04:19:10 48° 289° (WNW) 04:24:15 435.225
ISS 25 May 04:14:10 04:15:36 12° 2° (N) 04:17:03 145.825
AO-7 25 May 04:21:13 04:28:37 35° 96° (E) 04:36:08 29.400- 29.500
STARS 25 May 04:29:43 04:33:05 20° 267° (W) 04:36:22 437.465
BEESAT 3 25 May 04:29:57 04:33:46 39° 244° (WSW) 04:37:30 437.485
MOZHAYETS 4 25 May 04:30:54 04:35:19 50° 73° (ENE) 04:39:45
AIST 2 25 May 04:50:35 04:54:50 76° 57° (ENE) 04:58:59 435.215
BEESAT 2 25 May 05:16:39 05:19:16 16° 249° (WSW) 05:21:43 435.950
JAS-2 25 May 05:18:56 05:24:06 70° 286° (WNW) 05:29:22 435.910
SO-50 25 May 05:28:54 05:32:51 25° 316° (NW) 05:36:50 436.795
HORYU 2 25 May 05:39:05 05:43:02 32° 290° (WNW) 05:46:55 437.375
VERMONT LUNAR 25 May 05:39:42 05:42:55 89° 157° (SSE) 05:46:08 437.305
PHONESAT 2.4 25 May 05:41:18 05:44:46 72° 169° (S) 05:48:13 2401.200-2431.200
ISS 25 May 05:50:16 05:52:55 22° 22° (NNE) 05:55:36 145.825
CUBESAT XI-V 25 May 06:03:34 06:07:47 38° 72° (ENE) 06:12:05 437.345
Cubesat XI-IV 25 May 06:07:26 06:09:58 14° 88° (E) 06:12:49 437.490
MOZHAYETS 4 25 May 06:10:05 06:12:53 15° 270° (W) 06:15:31
Cosmos 2491 25 May 06:13:07 06:20:56 35° 69° (ENE) 06:28:50 435.465 / 435.565
AO-7 25 May 06:13:39 06:21:43 53° 295° (WNW) 06:29:44 29.400- 29.500
STRAND 1 25 May 06:28:56 06:33:23 33° 69° (ENE) 06:37:57 437.568
PRISM 25 May 06:47:03 06:51:01 51° 73° (ENE) 06:54:59 437.425
YUBILEINY 25 May 07:05:51 07:13:03 31° 85° (E) 07:20:29 435.215
M-CUBED/EXP-1 PRIME 25 May 07:12:33 07:16:53 80° 72° (ENE) 07:20:53 437.505
VERMONT LUNAR 25 May 07:16:57 07:20:02 47° 198° (SSW) 07:23:07 437.305
PHONESAT 2.4 25 May 07:19:24 07:22:52 84° 190° (S) 07:26:20 2401.200-2431.200
AUBIESAT-1 25 May 07:22:50 07:27:08 89° 248° (WSW) 07:31:06 437.475
CUTE-I 25 May 07:25:23 07:30:46 75° 103° (ESE) 07:36:09 437.470
ISS 25 May 07:26:20 07:29:34 60° 220° (SW) 07:32:47 145.825
RS-15 25 May 07:39:37 07:44:16 15° 99° (E) 07:49:54 29.354- 29.394
CUBESAT XI-V 25 May 07:41:55 07:45:24 20° 268° (W) 07:48:47 437.345
Cubesat XI-IV 25 May 07:45:22 07:50:44 73° 286° (WNW) 07:56:05 437.490
STRAND 1 25 May 08:08:11 08:12:37 29° 265° (W) 08:17:01 437.568
Cosmos 2491 25 May 08:09:40 08:18:10 52° 270° (W) 08:26:30 435.465 / 435.565
AO-7 25 May 08:09:43 08:12:49 12° 315° (NW) 08:15:27 29.400- 29.500
PRISM 25 May 08:25:04 08:26:50 12° 270° (W) 08:28:25 437.425
DOVE 4 25 May 08:30:18 08:32:23 13° 86° (E) 08:34:44 437.250
AIST 1 25 May 08:31:17 08:35:41 90° 297° (WNW) 08:40:05
BRITE-PL 25 May 08:41:40 08:47:04 44° 96° (E) 08:52:17 437.365/2234.400
SEEDS 25 May 08:47:17 08:48:46 12° 89° (E) 08:50:29 437.485
GOMX 1 25 May 08:55:07 09:00:06 37° 95° (E) 09:04:52 467.674
VERMONT LUNAR 25 May 08:55:24 08:56:48 12° 212° (SSW) 08:58:07 437.305
PHONESAT 2.4 25 May 08:57:36 09:00:50 36° 202° (SSW) 09:04:03 2401.200-2431.200
YUBILEINY 25 May 09:00:53 09:09:30 56° 284° (WNW) 09:18:03 435.215
HO-68 25 May 09:01:55 09:08:11 33° 95° (E) 09:14:33 435.675
COMPASS 1 25 May 09:03:13 09:05:29 15° 90° (E) 09:07:55 437.405
CUTE-I 25 May 09:07:11 09:10:17 15° 298° (WNW) 09:13:11 437.470
AAUSAT CUBESAT 2 25 May 09:16:43 09:19:30 18° 92° (E) 09:22:25 437.432
ANTELSAT 25 May 09:26:50 09:28:32 12° 63° (ENE) 09:30:29 437.575/2403.000
CUBEBUG 2 25 May 09:30:13 09:30:54 10° 86° (E) 09:31:53 437.445
Cosmos 2504 25 May 09:38:16 09:45:02 29° 86° (E) 09:51:41 435.465 / 435.565
RS-15 25 May 09:44:07 09:54:52 73° 117° (ESE) 10:05:58 29.354- 29.394
CANX-2 25 May 09:51:05 09:55:20 89° 287° (WNW) 09:59:32 2200.000
CUTE 1.7 + AOD 2 25 May 09:54:58 09:59:12 89° 283° (WNW) 10:03:24 437.475
Oscar 11 25 May 09:55:43 09:59:07 23° 93° (E) 10:02:35 145.826/435.025
DELFI C3 25 May 09:57:47 10:00:19 16° 91° (E) 10:02:58 145.870
TIGRISAT 25 May 09:58:23 10:02:06 24° 68° (ENE) 10:05:54 435.000
CINEMA 3 25 May 09:58:44 10:03:21 47° 98° (E) 10:07:45 145.822/145.860
POPSAT HIP 1 25 May 10:02:18 10:03:35 11° 64° (ENE) 10:05:07 437.405
PCSat 25 May 10:05:32 10:10:22 32° 51° (NE) 10:15:15 145.827
DUCHIFAT 1 25 May 10:05:37 10:07:11 12° 64° (ENE) 10:08:59 145.980
DOVE 4 25 May 10:05:40 10:10:51 72° 285° (WNW) 10:15:44 437.250
UNISAT 6 25 May 10:17:14 10:21:34 38° 71° (ENE) 10:25:54 437.425
UWE-3 25 May 10:19:14 10:23:08 30° 95° (E) 10:26:56 435.000/436.395/437.385
BRITE-PL 25 May 10:20:35 10:25:19 27° 293° (WNW) 10:29:48 437.365/2234.400
SEEDS 25 May 10:20:53 10:24:59 54° 286° (WNW) 10:29:02 437.485
GOMX 1 25 May 10:33:25 10:38:04 29° 293° (WNW) 10:42:27 467.674
FUNcube-1 25 May 10:34:39 10:38:36 34° 96° (E) 10:42:28 145.935
BUGSAT 1 25 May 10:36:29 10:39:13 18° 67° (ENE) 10:42:06 437.445
COMPASS 1 25 May 10:37:29 10:41:26 43° 287° (WNW) 10:45:22 437.405
QB50P1 25 May 10:43:49 10:47:35 32° 70° (ENE) 10:51:26 145.935-145.965
POLYITAN 1 25 May 10:44:38 10:48:27 33° 71° (ENE) 10:52:22 437.675
HO-68 25 May 10:49:19 10:56:08 47° 293° (WNW) 11:02:51 435.675
AAUSAT CUBESAT 2 25 May 10:51:29 10:55:17 35° 288° (WNW) 10:59:01 437.432
ANTELSAT 25 May 11:00:04 11:04:47 76° 258° (WSW) 11:09:28 437.575/2403.000
CUBEBUG 2 25 May 11:03:45 11:08:15 68° 285° (WNW) 11:12:33 437.445
YUBILEINY 25 May 11:08:04 11:08:54 10° 308° (NW) 11:08:59 435.215
50 SAT 25 May 11:13:28 11:16:31 22° 94° (E) 11:19:36 437.505
ZACube-1 25 May 11:14:04 11:18:27 83° 283° (WNW) 11:22:41 437.345
NANOSAT C BR1 25 May 11:15:22 11:19:36 72° 76° (ENE) 11:23:55 145.865
UKube-1 25 May 11:20:01 11:24:15 48° 100° (E) 11:28:27 .
QB50P2 25 May 11:21:52 11:26:10 88° 71° (ENE) 11:30:30 145.880/145.840
HUMSAT D 25 May 11:24:18 11:28:26 57° 100° (E) 11:32:29 437.325/437.525
DX 1 25 May 11:25:45 11:30:08 61° 101° (E) 11:34:29 434.975-435.025
ESTCUBE 1 25 May 11:28:12 11:31:23 19° 92° (E) 11:34:42 437.505/2401.250
Cosmos 2504 25 May 11:29:51 11:38:07 56° 283° (WNW) 11:45:49 435.465 / 435.565
Oscar 11 25 May 11:31:33 11:35:20 30° 290° (WNW) 11:39:03 145.826/435.025
DELFI C3 25 May 11:31:54 11:35:36 36° 288° (WNW) 11:39:16 145.870
VELOX 1 25 May 11:32:26 11:36:33 35° 97° (E) 11:40:39 145.980
TIGRISAT 25 May 11:34:23 11:38:42 34° 264° (W) 11:42:57 435.000
POPSAT HIP 1 25 May 11:34:42 11:38:57 69° 259° (WSW) 11:43:15 437.405
CINEMA 3 25 May 11:36:52 11:40:11 18° 295° (WNW) 11:43:14 145.822/145.860
CUBEBUG 1 25 May 11:36:54 11:40:10 20° 93° (E) 11:43:33 437.445
DUCHIFAT 1 25 May 11:38:17 11:42:31 64° 259° (W) 11:46:47 145.980
PCSat 25 May 11:48:52 11:53:51 37° 249° (WSW) 11:58:46 145.827
UNISAT 6 25 May 11:54:50 11:58:28 21° 267° (W) 12:02:00 437.425
UWE-3 25 May 11:55:58 11:59:32 24° 292° (WNW) 12:02:56 435.000/436.395/437.385
RS-15 25 May 11:58:19 12:08:19 38° 323° (NW) 12:18:31 29.354- 29.394
AISAT 25 May 12:03:05 12:07:37 80° 102° (ESE) 12:12:06 437.250
DANDE 25 May 12:10:18 12:13:17 13° 77° (ENE) 12:17:01 436.750
BUGSAT 1 25 May 12:10:32 12:14:25 38° 262° (W) 12:18:21 437.445
FUNcube-1 25 May 12:11:26 12:14:44 21° 293° (WNW) 12:17:52 145.935
SO-50 25 May 12:19:16 12:23:58 41° 50° (NE) 12:28:36 436.795
QB50P1 25 May 12:20:09 12:23:31 22° 267° (W) 12:26:49 145.935-145.965
POLYITAN 1 25 May 12:21:07 12:24:27 21° 267° (W) 12:27:43 437.675
SPROUT 25 May 12:23:28 12:26:22 18° 91° (E) 12:29:23 437.525
50 SAT 25 May 12:47:58 12:51:13 25° 290° (WNW) 12:54:22 437.505
CUSAT 1 25 May 12:50:20 12:56:44 38° 88° (E) 13:04:08 437.405
TISAT 1 25 May 12:53:42 12:57:20 27° 95° (E) 13:01:01 437.305
UKube-1 25 May 12:57:17 13:00:02 16° 295° (WNW) 13:02:36 .
HUMSAT D 25 May 13:01:52 13:03:44 12° 295° (WNW) 13:05:24 437.325/437.525
DX 1 25 May 13:03:42 13:05:55 13° 296° (WNW) 13:07:56 434.975-435.025
ESTCUBE 1 25 May 13:04:12 13:08:27 40° 288° (WNW) 13:12:39 437.505/2401.250
VELOX 1 25 May 13:09:25 13:12:54 22° 293° (WNW) 13:16:18 145.980
CUBEBUG 1 25 May 13:12:34 13:16:40 36° 289° (WNW) 13:20:43 437.445
Oscar 19 25 May 13:18:14 13:23:14 51° 72° (ENE) 13:28:18 437.125/150
GONETS M04 25 May 13:28:56 13:37:27 57° 91° (E) 13:46:04
ITAMSAT 1 25 May 13:29:44 13:33:23 20° 64° (ENE) 13:37:12 435.822/435.867
AO-7 25 May 13:35:46 13:36:37 10° 43° (NE) 13:38:00 29.400- 29.500
AISAT 25 May 13:42:24 13:43:37 11° 298° (WNW) 13:44:34 437.250
DANDE 25 May 13:48:10 13:54:59 74° 96° (E) 14:03:20 436.750
Gurwin Techsat 1B 25 May 13:55:36 14:00:16 33° 68° (ENE) 14:04:59 435.225
SPROUT 25 May 13:58:35 14:02:39 39° 288° (WNW) 14:06:40 437.525
SO-50 25 May 14:00:12 14:04:21 26° 247° (WSW) 14:08:21 436.795
Cosmos 2499 25 May 14:14:36 14:19:32 19° 83° (E) 14:24:41 435.465 / 435.565
RS-15 25 May 14:17:30 14:25:16 20° 357° (N) 14:33:12 29.354- 29.394
ITUPSAT 1 25 May 14:28:18 14:32:53 44° 98° (E) 14:37:29 437.325
TISAT 1 25 May 14:29:29 14:33:03 25° 291° (WNW) 14:36:30 437.305
CUSAT 1 25 May 14:32:17 14:39:15 47° 289° (WNW) 14:47:09 437.405
BEESAT 25 May 14:37:07 14:41:49 56° 100° (E) 14:46:31 436.000
